Weather History for KLWC - October, 2012

Change the Weather History Date:

Sunday, October 7, 2012

  Actual Average Record
Temperature  
Mean Temperature 40 °F 59 °F  
Max Temperature 59 °F 72 °F 86 °F (2011)
Min Temperature 21 °F 46 °F 21 °F (2012)
Degree Days  
Heating Degree Days 25 7  
Month to date heating degree days 95 44  
Since 1 July heating degree days 168 107  
Cooling Degree Days 0 1  
Month to date cooling degree days 3 13  
Year to date cooling degree days 1735 1357  
Moisture  
Dew Point 24 °F    
Average Humidity 57    
Maximum Humidity 88    
Minimum Humidity 25    
Precipitation  
Precipitation 0.00 in 0.12 in 0.59 in (2004)
Month to date precipitation T 0.88  
Year to date precipitation 18.13 32.90  
Sea Level Pressure  
Sea Level Pressure 30.27 in    
Wind  
Wind Speed 4 mph (WNW)    
Max Wind Speed 13 mph    
Max Gust Speed 18 mph    
Visibility 10 miles    
Events      
T = Trace of Precipitation, MM = Missing Value Source: NWS Daily Summary

Daily Weather History Graph

Daily Weather History Graph

Search for Another Location

Airport or City:

Trip Planner

Search our weather history database for the weather conditions in past years. The results will help you decide how hot, cold, wet, or windy it might be!

Date:

Astronomy

Oct. 07, 2012 Rise Set
Actual Time 7:23 AM CDT 6:53 PM CDT
Civil Twilight 6:56 AM CDT 7:20 PM CDT
Nautical Twilight 6:25 AM CDT 7:50 PM CDT
Astronomical Twilight 5:54 AM CDT 8:21 PM CDT
Moon No Moon Rise 1:58 PM CDT (10/7)
Length of Visible Light 12h 23m
Length of Day
11h 30m
Waning Gibbous, 56% of the Moon is Illuminated
Oct 7
Waning Gibbous
Oct 8
Last Quarter
Oct 15
New
Oct 21
First Quarter
Oct 29
Full

Hourly Weather History & Observations

Time (CDT) Temp. Windchill Dew Point Humidity Pressure Visibility Wind Dir Wind Speed Gust Speed Precip Events Conditions
12:52 AM 37.0 °F 31.6 °F 27.0 °F 67% 30.35 in 10.0 mi NNW 6.9 mph - N/A   Mostly Cloudy
1:52 AM 37.0 °F 33.3 °F 27.0 °F 67% 30.35 in 10.0 mi NW 4.6 mph - N/A   Overcast
2:52 AM 32.0 °F - 26.1 °F 79% 30.35 in 10.0 mi Calm Calm - N/A   Clear
3:52 AM 27.0 °F 21.6 °F 21.9 °F 81% 30.33 in 8.0 mi NNW 4.6 mph - N/A   Clear
4:52 AM 23.0 °F 14.7 °F 19.9 °F 88% 30.34 in 9.0 mi NNW 6.9 mph - N/A   Clear
5:52 AM 26.1 °F 19.4 °F 23.0 °F 88% 30.33 in 10.0 mi WNW 5.8 mph - N/A   Clear
6:52 AM 25.0 °F 20.7 °F 21.0 °F 85% 30.34 in 8.0 mi NNW 3.5 mph - N/A   Clear
7:52 AM 24.1 °F 19.7 °F 21.0 °F 88% 30.35 in 10.0 mi NNW 3.5 mph - N/A   Clear
8:52 AM 34.0 °F - 27.0 °F 75% 30.35 in 10.0 mi Calm Calm - N/A   Clear
9:52 AM 41.0 °F 38.0 °F 27.0 °F 57% 30.35 in 10.0 mi NW 4.6 mph - N/A   Clear
10:52 AM 48.0 °F - 27.0 °F 44% 30.34 in 10.0 mi Calm Calm - N/A   Clear
11:52 AM 53.1 °F - 25.0 °F 34% 30.32 in 10.0 mi West 8.1 mph 16.1 mph N/A   Clear
12:52 PM 54.0 °F - 24.1 °F 31% 30.29 in 10.0 mi WNW 4.6 mph - N/A   Clear
1:52 PM 55.0 °F - 23.0 °F 29% 30.25 in 10.0 mi Calm Calm - N/A   Clear
2:52 PM 55.9 °F - 23.0 °F 28% 30.22 in 10.0 mi Variable 3.5 mph - N/A   Clear
3:52 PM 57.9 °F - 23.0 °F 26% 30.19 in 10.0 mi Variable 3.5 mph - N/A   Clear
4:52 PM 55.9 °F - 21.9 °F 27% 30.17 in 10.0 mi WSW 6.9 mph - N/A   Clear
5:52 PM 57.0 °F - 23.0 °F 27% 30.17 in 10.0 mi West 9.2 mph - N/A   Clear
6:52 PM 53.1 °F - 24.1 °F 32% 30.17 in 10.0 mi SW 6.9 mph - N/A   Partly Cloudy
7:52 PM 46.9 °F - 26.1 °F 44% 30.18 in 10.0 mi SW 6.9 mph - N/A   Scattered Clouds
8:52 PM 39.9 °F - 26.1 °F 58% 30.18 in 8.0 mi Calm Calm - N/A   Scattered Clouds
9:52 PM 37.0 °F - 26.1 °F 65% 30.19 in 9.0 mi Calm Calm - N/A   Clear
10:52 PM 34.0 °F 31.0 °F 26.1 °F 73% 30.18 in 10.0 mi ESE 3.5 mph - N/A   Clear
11:52 PM 30.9 °F 26.2 °F 25.0 °F 79% 30.16 in 10.0 mi East 4.6 mph - N/A   Clear